Starlink 32305

operational
NORAD ID: 61523 Int'l Des: 2024-183 Owner: SPXS Country: US Constellation: starlink
LEOCIRCULAR

Über Starlink 32305

Beschreibung wird geladen...

Live-Position

3D-Globus wird geladen...

Nächste Überflüge

Höhenverlauf

Altitude vs Time

uPlot chart will show altitude changes over time

Zweizeiliger Elementsatz

1 61523U 24183Q 25350.82128377 .00000789 00000-0 38780-4 0 9992
2 61523 53.1603 167.4493 0001374 88.6658 271.4501 15.30193427 66969
Epoch: 16. Dez. 2025 • Age: 23 hours

Aktueller Status

Höhe 477.9 km
Geschwindigkeit 7.63 km/s
Subsatellitenpunkt -9.10°S, 14.07°W
Startdatum 15. Okt. 2024
Alter 1.1 years
Typ internet

Technische Details

Klassifizierung Payload
Masse 730.00 kg
Trockenmasse 700.00 kg
Gesamtmasse 730.00 kg
Länge 0.30 m
Durchmesser 4.10 m
Spannweite 29.00 m
Form Box + pan
Hersteller SPXS
Bus-Typ Starlink V2M
Phasenstatus In Orbit
Besitzer/Staat SPXS/US

Große Konstellationen

Loading constellations...